When you browse on this site, cookies collect data to enhance your experience and personalize the content and advertising you see.
Visit our Privacy Policy to learn more. By continuing to use the site, you agree to this use of cookies and data.
EN

Hourly Weather Leninkent

Today, 4 July, Saturday

Time Temperature Precipitation Wind Pressure Humidity
00:00 +25°C° 0 mm 5 mps 746 mmHg 59%
01:00 +25°C° 0 mm 5 mps 746 mmHg 60%
02:00 +25°C° 0 mm 5 mps 746 mmHg 60%
03:00 +23°C° 0 mm 7 mps 745 mmHg 61%
04:00 +24°C° 0 mm 6 mps 746 mmHg 57%
05:00 +26°C° 0 mm 6 mps 746 mmHg 54%
06:00 +27°C° 0 mm 5 mps 746 mmHg 50%
07:00 +28°C° 0 mm 6 mps 746 mmHg 44%
08:00 +31°C° 0 mm 8 mps 746 mmHg 38%
09:00 +33°C° 0 mm 9 mps 746 mmHg 32%
10:00 +33°C° 0 mm 9 mps 746 mmHg 33%
11:00 +34°C° 0 mm 9 mps 746 mmHg 33%
12:00 +34°C° 0 mm 10 mps 746 mmHg 33%
13:00 +34°C° 0 mm 9 mps 745 mmHg 33%
14:00 +33°C° 0 mm 9 mps 745 mmHg 32%
15:00 +33°C° 0 mm 10 mps 745 mmHg 30%
16:00 +32°C° 0 mm 9 mps 745 mmHg 32%
17:00 +31°C° 0 mm 8 mps 745 mmHg 35%
18:00 +29°C° 0 mm 7 mps 745 mmHg 37%
19:00 +28°C° 0 mm 6 mps 745 mmHg 41%
20:00 +27°C° 0 mm 6 mps 745 mmHg 45%
21:00 +25°C° 0 mm 5 mps 745 mmHg 48%
22:00 +25°C° 0 mm 5 mps 745 mmHg 50%
23:00 +25°C° 0 mm 5 mps 745 mmHg 51%

Tomorrow, 5 July, Sunday

Time Temperature Precipitation Wind Pressure Humidity
00:00 +25°C° 0 mm 4 mps 744 mmHg 53%
01:00 +25°C° 0 mm 4 mps 744 mmHg 54%
02:00 +23°C° 0 mm 4 mps 744 mmHg 56%
03:00 +23°C° 0 mm 4 mps 744 mmHg 57%
04:00 +25°C° 0 mm 4 mps 744 mmHg 55%
05:00 +25°C° 0 mm 4 mps 744 mmHg 53%
06:00 +26°C° 0 mm 4 mps 744 mmHg 51%
07:00 +28°C° 0 mm 5 mps 744 mmHg 44%
08:00 +32°C° 0 mm 6 mps 744 mmHg 36%
09:00 +34°C° 0 mm 7 mps 744 mmHg 29%
10:00 +34°C° 0 mm 7 mps 744 mmHg 27%
11:00 +35°C° 0 mm 8 mps 743 mmHg 25%
12:00 +37°C° 0 mm 8 mps 743 mmHg 23%
13:00 +35°C° 0 mm 8 mps 743 mmHg 24%
14:00 +35°C° 0 mm 8 mps 743 mmHg 25%
15:00 +35°C° 0 mm 9 mps 743 mmHg 25%
16:00 +34°C° 0 mm 8 mps 743 mmHg 27%
17:00 +33°C° 0 mm 8 mps 742 mmHg 29%
18:00 +32°C° 0 mm 7 mps 742 mmHg 31%
19:00 +30°C° 0 mm 6 mps 742 mmHg 34%
20:00 +28°C° 0 mm 5 mps 742 mmHg 37%
21:00 +27°C° 0 mm 4 mps 743 mmHg 40%
22:00 +26°C° 0 mm 4 mps 742 mmHg 41%
23:00 +26°C° 0 mm 4 mps 742 mmHg 42%

Day after tomorrow, 6 July, Monday

Time Temperature Precipitation Wind Pressure Humidity
00:00 +26°C° 0 mm 4 mps 742 mmHg 44%
01:00 +25°C° 0 mm 4 mps 742 mmHg 45%
02:00 +25°C° 0 mm 4 mps 742 mmHg 46%
03:00 +25°C° 0 mm 4 mps 742 mmHg 47%
04:00 +26°C° 0 mm 4 mps 742 mmHg 44%
05:00 +27°C° 0 mm 3 mps 742 mmHg 41%
06:00 +28°C° 0 mm 3 mps 742 mmHg 38%
07:00 +30°C° 0 mm 5 mps 742 mmHg 32%
08:00 +34°C° 0 mm 6 mps 742 mmHg 26%
09:00 +38°C° 0 mm 8 mps 743 mmHg 20%
10:00 +38°C° 0 mm 8 mps 742 mmHg 20%
11:00 +39°C° 0 mm 8 mps 742 mmHg 20%
12:00 +39°C° 0 mm 8 mps 742 mmHg 20%
13:00 +39°C° 0 mm 8 mps 742 mmHg 21%
14:00 +38°C° 0 mm 8 mps 741 mmHg 23%
15:00 +38°C° 0 mm 8 mps 741 mmHg 25%
16:00 +37°C° 0 mm 8 mps 741 mmHg 26%
17:00 +35°C° 0 mm 7 mps 741 mmHg 26%
18:00 +35°C° 0 mm 7 mps 741 mmHg 27%
19:00 +33°C° 0 mm 6 mps 741 mmHg 31%
20:00 +30°C° 0 mm 5 mps 742 mmHg 36%
21:00 +28°C° 0 mm 4 mps 742 mmHg 40%
22:00 +28°C° 0 mm 4 mps 742 mmHg 43%
23:00 +27°C° 0 mm 4 mps 741 mmHg 47%

7 July, Tuesday

Time Temperature Precipitation Wind Pressure Humidity
00:00 +26°C° 0 mm 4 mps 741 mmHg 50%
01:00 +26°C° 0 mm 4 mps 741 mmHg 49%
02:00 +26°C° 0 mm 4 mps 741 mmHg 47%
03:00 +26°C° 0 mm 4 mps 741 mmHg 45%
04:00 +27°C° 0 mm 4 mps 741 mmHg 43%
05:00 +27°C° 0 mm 4 mps 741 mmHg 40%
06:00 +28°C° 0 mm 4 mps 741 mmHg 38%
07:00 +32°C° 0 mm 5 mps 741 mmHg 33%
08:00 +34°C° 0 mm 6 mps 741 mmHg 27%
09:00 +38°C° 0 mm 7 mps 741 mmHg 22%
10:00 +38°C° 0 mm 8 mps 741 mmHg 22%
11:00 +39°C° 0 mm 8 mps 741 mmHg 22%
12:00 +39°C° 0 mm 9 mps 741 mmHg 22%
13:00 +39°C° 0 mm 9 mps 740 mmHg 23%
14:00 +39°C° 0 mm 9 mps 740 mmHg 24%
15:00 +39°C° 0 mm 9 mps 740 mmHg 25%
16:00 +38°C° 0 mm 8 mps 740 mmHg 28%
17:00 +35°C° 0 mm 8 mps 740 mmHg 30%
18:00 +34°C° 0 mm 7 mps 739 mmHg 33%
19:00 +33°C° 0 mm 6 mps 740 mmHg 38%
20:00 +30°C° 0 mm 6 mps 740 mmHg 42%
21:00 +28°C° 0 mm 5 mps 740 mmHg 47%
22:00 +28°C° 0 mm 5 mps 740 mmHg 47%
23:00 +28°C° 0 mm 5 mps 740 mmHg 47%

8 July, Wednesday

Time Temperature Precipitation Wind Pressure Humidity
00:00 +28°C° 0 mm 4 mps 740 mmHg 47%
01:00 +27°C° 0 mm 4 mps 740 mmHg 47%
02:00 +27°C° 0 mm 4 mps 740 mmHg 47%
03:00 +27°C° 0 mm 4 mps 740 mmHg 47%
04:00 +27°C° 0 mm 4 mps 740 mmHg 45%
05:00 +28°C° 0 mm 3 mps 740 mmHg 44%
06:00 +29°C° 0 mm 3 mps 740 mmHg 42%
07:00 +32°C° 0 mm 4 mps 740 mmHg 37%
08:00 +34°C° 0 mm 4 mps 740 mmHg 32%
09:00 +36°C° 0 mm 4 mps 740 mmHg 27%
10:00 +37°C° 0 mm 5 mps 740 mmHg 26%
11:00 +39°C° 0 mm 6 mps 740 mmHg 24%
12:00 +40°C° 0 mm 7 mps 740 mmHg 23%
13:00 +39°C° 0 mm 7 mps 740 mmHg 24%
14:00 +39°C° 0 mm 7 mps 739 mmHg 26%
15:00 +38°C° 0 mm 7 mps 739 mmHg 28%
16:00 +36°C° 0 mm 7 mps 739 mmHg 30%
17:00 +35°C° 0 mm 6 mps 739 mmHg 33%
18:00 +34°C° 0 mm 6 mps 739 mmHg 35%
19:00 +33°C° 0 mm 5 mps 740 mmHg 40%
20:00 +30°C° 0 mm 4 mps 740 mmHg 44%
21:00 +28°C° 0 mm 3 mps 740 mmHg 48%
22:00 +28°C° 0.1 mm 3 mps 740 mmHg 51%
23:00 +28°C° 0.1 mm 3 mps 740 mmHg 53%

9 July, Thursday

Time Temperature Precipitation Wind Pressure Humidity
00:00 +27°C° 0.1 mm 2 mps 740 mmHg 56%
01:00 +27°C° 0 mm 2 mps 740 mmHg 55%
02:00 +27°C° 0 mm 1 mps 740 mmHg 55%
03:00 +27°C° 0 mm 1 mps 740 mmHg 55%
04:00 +28°C° 0 mm 1 mps 740 mmHg 52%
05:00 +29°C° 0 mm 1 mps 740 mmHg 50%
06:00 +30°C° 0 mm 1 mps 740 mmHg 47%
07:00 +31°C° 0 mm 1 mps 740 mmHg 42%
08:00 +34°C° 0 mm 2 mps 740 mmHg 38%
09:00 +35°C° 0 mm 2 mps 740 mmHg 34%
10:00 +35°C° 0 mm 2 mps 740 mmHg 34%
11:00 +34°C° 0 mm 3 mps 740 mmHg 34%
12:00 +34°C° 0 mm 3 mps 740 mmHg 35%
13:00 +35°C° 0 mm 3 mps 740 mmHg 33%
14:00 +35°C° 0 mm 4 mps 740 mmHg 31%
15:00 +36°C° 0 mm 4 mps 740 mmHg 29%
16:00 +35°C° 0 mm 3 mps 740 mmHg 32%
17:00 +34°C° 0 mm 2 mps 740 mmHg 36%
18:00 +32°C° 0 mm 1 mps 740 mmHg 40%
19:00 +31°C° 0 mm 1 mps 740 mmHg 44%
20:00 +30°C° 0 mm 2 mps 740 mmHg 47%
21:00 +29°C° 0 mm 2 mps 741 mmHg 51%
22:00 +28°C° 0 mm 2 mps 741 mmHg 53%
23:00 +27°C° 0 mm 1 mps 740 mmHg 56%
Show more